Weather at Sumburgh Airport

Public forecast

Using degrees Celsius for public forecast. Weather courtesy of forecast.io.

Current aviation weather report (METAR) for Sumburgh Airport

Retrieved 2020/10/27 10:20 UTC (40 minutes ago):

EGPB 271020Z 09005KT 9999 FEW011 11/08 Q0989

Closest aviation forecast (TAF) to Sumburgh Airport

Forecast is more than 12 hours old.

Closest forecast is Scatsta Airport, 33.3 nm (61.6 km) N. Retrieved 2013/04/29 03:39 UTC (8 years ago):

TAF TAF EGPM 290337Z 2903/2915 22005KT 9999 SCT030 PROB30 TEMPO 2903/2906 7000 SHRAGS BECMG 2906/2909 32015KT PROB40 TEMPO 2906/2915 6000 SHRA SHGS BKN012CB